Total_Precipitation_Accumulation
1.30 1.49 1.61 1.62 1.62 1.67 1.72 1.71 1.75 1.75 1.73 1.70 1.66 1.70 1.76 1.74 1.68 1.73 1.69 1.63 1.63 1.56 1.53 1.56 1.45 1.35 1.46 1.49 1.55 1.58 1.51 1.57 1.61 1.06 0.83 0.89 1.12 1.26 1.34 1.22 1.18 1.17 1.18
1.20 1.32 1.47 1.57 1.60 1.63 1.62 1.65 1.72 1.73 1.72 1.65 1.60 1.61 1.66 1.69 1.66 1.68 1.67 1.62 1.61 1.58 1.53 1.55 1.54 1.45 1.46 1.49 1.59 1.59 1.51 1.44 1.55 1.36 1.07 1.07 1.20 1.33 1.37 1.34 1.31 1.26 1.14
1.17 1.28 1.42 1.52 1.52 1.52 1.47 1.55 1.73 1.82 1.80 1.66 1.60 1.60 1.63 1.69 1.66 1.61 1.68 1.68 1.59 1.51 1.48 1.53 1.56 1.56 1.48 1.43 1.51 1.56 1.49 1.45 1.49 1.52 1.28 1.16 1.26 1.40 1.55 1.57 1.50 1.48 1.34
1.06 1.21 1.35 1.46 1.44 1.39 1.36 1.38 1.53 1.72 1.81 1.72 1.60 1.56 1.63 1.74 1.75 1.72 1.79 1.75 1.63 1.50 1.40 1.41 1.49 1.62 1.63 1.61 1.62 1.58 1.61 1.69 1.67 1.66 1.50 1.34 1.37 1.50 1.67 1.77 1.78 1.71 1.61
1.01 1.10 1.19 1.32 1.40 1.37 1.32 1.33 1.44 1.56 1.61 1.65 1.66 1.60 1.62 1.85 2.07 2.19 2.07 1.79 1.61 1.52 1.35 1.27 1.36 1.63 1.84 2.01 2.04 1.88 1.89 2.06 2.03 1.98 1.84 1.64 1.51 1.58 1.73 1.73 1.83 1.77 1.76
1.01 1.06 1.10 1.25 1.38 1.38 1.30 1.34 1.47 1.57 1.56 1.58 1.64 1.62 1.59 1.78 2.22 2.44 2.05 1.66 1.50 1.46 1.40 1.26 1.28 1.56 1.76 1.93 2.08 2.04 2.04 2.22 2.33 2.28 2.11 1.83 1.50 1.39 1.48 1.72 1.97 2.17 2.16
1.03 1.05 1.11 1.24 1.31 1.36 1.34 1.36 1.47 1.58 1.58 1.55 1.57 1.59 1.57 1.64 2.03 2.24 1.99 1.62 1.46 1.38 1.32 1.29 1.32 1.42 1.58 1.61 1.78 1.85 1.83 1.98 2.21 2.30 2.28 1.84 1.60 1.49 1.73 2.01 2.06 2.17 2.07
1.06 1.05 1.10 1.18 1.22 1.32 1.35 1.38 1.49 1.56 1.52 1.51 1.53 1.52 1.50 1.58 1.91 2.14 1.97 1.64 1.53 1.44 1.40 1.31 1.24 1.28 1.43 1.61 1.72 1.72 1.62 1.65 1.86 2.04 2.23 2.03 1.81 1.84 2.18 2.49 2.61 2.60 2.32
1.05 1.01 1.03 1.11 1.16 1.25 1.31 1.38 1.47 1.56 1.52 1.46 1.43 1.49 1.46 1.49 1.83 2.16 2.03 1.67 1.60 1.50 1.46 1.37 1.24 1.19 1.43 1.63 1.60 1.57 1.49 1.51 1.64 1.85 2.01 2.08 2.11 2.25 2.58 3.02 3.22 3.22 2.93
1.00 0.92 0.97 1.04 1.07 1.17 1.23 1.31 1.39 1.42 1.44 1.44 1.39 1.41 1.41 1.40 1.66 2.08 2.18 1.72 1.60 1.50 1.48 1.41 1.47 1.43 1.55 1.57 1.45 1.54 1.65 1.52 1.43 1.47 1.54 1.60 1.63 1.78 2.23 2.69 3.08 3.24 3.01
0.98 0.91 0.95 0.98 1.03 1.11 1.18 1.20 1.28 1.35 1.37 1.43 1.42 1.39 1.38 1.40 1.51 1.81 2.16 1.85 1.68 1.53 1.51 1.48 1.41 1.59 1.60 1.56 1.52 1.48 1.68 1.58 1.47 1.53 1.52 1.45 1.44 1.55 1.74 2.08 2.61 3.06 3.11
0.93 0.92 0.98 1.02 1.03 1.07 1.13 1.13 1.17 1.28 1.35 1.38 1.42 1.45 1.43 1.41 1.48 1.69 1.94 1.91 1.79 1.59 1.50 1.38 1.35 1.54 1.58 1.60 1.55 1.60 1.66 1.62 1.52 1.56 1.49 1.40 1.40 1.49 1.64 1.84 2.12 2.46 2.64
0.91 0.91 0.97 1.06 1.08 1.09 1.09 1.09 1.13 1.20 1.29 1.34 1.36 1.36 1.39 1.35 1.46 1.73 1.71 1.73 1.75 1.66 1.64 1.66 1.59 1.66 1.67 1.55 1.53 1.57 1.52 1.42 1.49 1.56 1.46 1.30 1.24 1.36 1.48 1.60 1.72 1.93 2.15
0.88 0.89 0.94 1.01 1.06 1.10 1.06 1.01 1.01 1.11 1.24 1.27 1.29 1.25 1.21 1.25 1.45 1.66 1.58 1.53 1.62 1.71 1.77 1.75 1.73 1.75 1.70 1.62 1.55 1.42 1.30 1.32 1.42 1.44 1.36 1.25 1.16 1.22 1.36 1.47 1.60 1.72 2.02
0.82 0.81 0.87 0.90 0.99 1.09 1.08 1.02 1.01 1.01 1.21 1.36 1.32 1.27 1.30 1.41 1.58 1.76 1.69 1.64 1.67 1.74 1.83 1.87 1.80 1.75 1.73 1.59 1.40 1.25 1.20 1.28 1.34 1.26 1.26 1.28 1.25 1.24 1.26 1.31 1.50 1.64 1.87
0.79 0.77 0.80 0.84 0.89 0.98 1.02 1.06 1.18 1.16 1.19 1.21 1.23 1.30 1.29 1.44 1.55 1.57 1.61 1.67 1.78 1.86 1.91 1.87 1.67 1.48 1.41 1.34 1.26 1.19 1.16 1.17 1.16 1.19 1.24 1.25 1.24 1.25 1.26 1.25 1.38 1.57 1.73
0.78 0.78 0.79 0.82 0.85 0.91 0.92 0.93 1.07 1.22 1.28 1.24 1.18 1.20 1.29 1.36 1.40 1.43 1.48 1.55 1.65 1.70 1.68 1.51 1.38 1.30 1.25 1.19 1.14 1.11 1.11 1.06 1.07 1.15 1.21 1.21 1.18 1.22 1.26 1.29 1.34 1.47 1.60
0.80 0.85 0.86 0.83 0.85 0.90 0.89 0.85 0.89 0.98 1.09 1.18 1.21 1.20 1.25 1.29 1.34 1.36 1.40 1.53 1.59 1.46 1.34 1.33 1.29 1.25 1.26 1.27 1.22 1.17 1.11 1.09 1.11 1.12 1.14 1.15 1.18 1.25 1.28 1.25 1.28 1.42 1.53
0.84 0.87 0.88 0.86 0.87 0.91 0.90 0.87 0.88 0.89 0.92 0.99 1.07 1.18 1.29 1.32 1.33 1.38 1.37 1.36 1.36 1.29 1.23 1.24 1.24 1.26 1.29 1.30 1.24 1.19 1.16 1.11 1.06 1.07 1.05 1.05 1.09 1.19 1.21 1.16 1.21 1.35 1.46
0.90 0.99 1.00 0.93 0.91 0.95 0.96 0.97 0.95 0.93 0.95 0.95 0.98 1.08 1.26 1.36 1.35 1.38 1.34 1.29 1.29 1.23 1.20 1.23 1.23 1.26 1.30 1.32 1.27 1.21 1.19 1.13 1.07 1.05 1.01 1.00 1.01 1.10 1.17 1.16 1.21 1.29 1.33
0.95 1.01 1.08 0.99 0.94 0.99 1.05 1.05 1.01 1.02 1.03 0.99 0.96 1.05 1.36 1.42 1.31 1.22 1.25 1.26 1.30 1.30 1.30 1.30 1.29 1.28 1.27 1.28 1.27 1.20 1.16 1.11 1.06 1.04 1.01 1.00 1.03 1.08 1.09 1.15 1.19 1.21 1.25
0.97 1.00 1.03 1.01 0.99 1.05 1.11 1.10 1.08 1.08 1.07 1.05 1.01 1.06 1.21 1.17 1.15 1.16 1.18 1.20 1.23 1.27 1.32 1.39 1.36 1.31 1.30 1.30 1.29 1.24 1.15 1.07 1.03 1.04 1.04 0.99 0.99 1.01 1.03 1.08 1.12 1.15 1.19
1.00 1.03 1.05 1.05 1.02 1.12 1.16 1.12 1.11 1.10 1.09 1.06 1.07 1.08 1.10 1.13 1.16 1.21 1.24 1.23 1.24 1.27 1.28 1.30 1.32 1.28 1.26 1.24 1.23 1.26 1.21 1.07 1.01 1.07 1.12 1.05 0.97 0.96 0.99 1.02 1.03 1.08 1.12
1.05 1.06 1.07 1.08 1.06 1.07 1.11 1.15 1.13 1.12 1.11 1.11 1.13 1.14 1.13 1.16 1.17 1.19 1.22 1.24 1.26 1.25 1.23 1.23 1.23 1.22 1.20 1.19 1.16 1.15 1.12 1.10 1.17 1.21 1.17 1.15 1.07 0.97 0.99 1.01 0.98 1.01 1.09
1.08 1.08 1.10 1.12 1.12 1.11 1.12 1.14 1.13 1.13 1.14 1.12 1.13 1.15 1.13 1.13 1.14 1.15 1.18 1.20 1.22 1.21 1.15 1.17 1.22 1.24 1.20 1.13 1.08 1.08 1.20 1.29 1.36 1.43 1.43 1.33 1.16 1.02 1.01 1.01 0.98 1.00 1.05
1.07 1.07 1.09 1.13 1.14 1.12 1.13 1.15 1.14 1.14 1.17 1.14 1.10 1.12 1.13 1.14 1.12 1.12 1.14 1.18 1.22 1.18 1.13 1.13 1.17 1.18 1.16 1.13 1.11 1.18 1.27 1.29 1.33 1.39 1.45 1.43 1.23 1.05 1.01 1.04 0.99 0.99 1.03